Date String (YYYY-MM-DD hh:mm:ss) UTC,Instrument flags,absolute air pressure of the measurement (hPa),sample flow rate (lpm),inlet stack bypass flow (lpm),air temperature of the measurement (°C),ambient temperature measured by the external sensor (°C),aerosol sample conditioner tube jacket temperature (°C),OPC LED temperature (°C),internal box temperature (°C),relative humidity of the measurement (%),span deviation,mass concentration of particles derived from Lorenz-Mie calculation of OPC scattering (μg/m³),mass concentration of particles derived from Lorenz-Mie calculation of OPC scattering (μg/m³),mass concentration of particles derived from Lorenz-Mie calculation of OPC scattering (μg/m³)
DateTimeUTC,F1_M11,P_M11,Q1_M11,Q2_M11,T1_M11,T2_M11,T3_M11,T4_M11,T5_M11,U1_M11,ZSPAN_M11,X0_M11,X2_M11,X1_M11
2023-10-31 02:00:00,SystemResetWarning,0836.3,5.00,000.00,024.2,022.9,000.0,032.6,025.5,6.0,0000.0,0007.65,0004.39,0004.09
2023-10-31 02:01:00,SystemResetWarning,0836.3,5.00,000.00,024.2,022.9,000.0,032.6,025.5,6.1,0000.0,0007.63,0004.36,0004.05
2023-10-31 02:02:00,SystemResetWarning,0836.2,4.99,000.00,024.1,022.9,000.0,032.6,025.5,6.1,0000.0,0007.59,0004.34,0004.05
2023-10-31 02:03:00,SystemResetWarning,0836.2,5.00,000.00,024.1,022.9,000.0,032.6,025.5,6.2,0000.0,0007.58,0004.33,0004.04
2023-10-31 02:04:00,SystemResetWarning,0836.2,5.00,000.00,024.1,022.8,000.0,032.6,025.5,6.2,-000.3,0007.43,0004.27,0003.98
2023-10-31 02:05:00,SystemResetWarning,0836.3,5.00,000.00,024.1,022.8,000.0,032.6,025.4,6.3,0000.0,0006.73,0004.20,0003.90
2023-10-31 02:06:00,SystemResetWarning,0836.2,5.00,000.00,024.1,022.8,000.0,032.6,025.4,6.2,0000.0,0006.75,0004.16,0003.84
2023-10-31 02:07:00,SystemResetWarning,0836.2,5.00,000.00,024.1,022.7,000.0,032.5,025.4,6.3,0000.0,0006.63,0004.12,0003.80
2023-10-31 02:08:00,SystemResetWarning,0836.3,5.00,000.00,024.0,022.7,000.0,032.5,025.4,6.3,0000.0,0007.10,0004.05,0003.74
2023-10-31 02:09:00,SystemResetWarning,0836.3,5.01,000.00,024.0,022.7,000.0,032.5,025.4,6.3,0000.0,0007.17,0003.99,0003.67
2023-10-31 02:10:00,SystemResetWarning,0836.4,5.00,000.00,024.0,022.7,000.0,032.5,025.4,6.4,0000.0,0007.25,0003.93,0003.63
2023-10-31 02:11:00,SystemResetWarning,0836.4,5.00,000.00,024.0,022.7,000.0,032.5,025.4,6.3,0000.0,0008.16,0003.89,0003.59
2023-10-31 02:12:00,SystemResetWarning,0836.4,5.00,000.00,024.0,022.7,000.0,032.5,025.4,6.3,0000.0,0008.73,0003.84,0003.55
2023-10-31 02:13:00,SystemResetWarning,0836.4,5.00,000.00,024.0,022.7,000.0,032.5,025.4,6.3,0000.0,0008.70,0003.81,0003.51
2023-10-31 02:14:00,SystemResetWarning,0836.4,4.99,000.00,024.0,022.7,000.0,032.5,025.3,6.2,0000.0,0008.72,0003.80,0003.49
2023-10-31 02:15:00,SystemResetWarning,0836.4,5.00,000.00,024.0,022.7,000.0,032.5,025.4,6.3,0000.0,0008.74,0003.79,0003.47
2023-10-31 02:16:00,SystemResetWarning,0836.5,5.00,000.00,024.0,022.8,000.0,032.5,025.4,6.4,0000.0,0008.75,0003.79,0003.48
2023-10-31 02:17:00,SystemResetWarning,0836.5,5.00,000.00,024.0,022.7,000.0,032.5,025.3,6.6,0000.0,0008.62,0003.75,0003.46
2023-10-31 02:18:00,SystemResetWarning,0836.5,5.01,000.00,024.0,022.7,000.0,032.4,025.3,6.7,0000.0,0008.52,0003.71,0003.44
2023-10-31 02:19:00,SystemResetWarning,0836.5,5.01,000.00,024.0,022.7,000.0,032.4,025.3,6.8,0000.0,0008.26,0003.75,0003.44
2023-10-31 02:20:00,SystemResetWarning,0836.5,4.99,000.00,023.9,022.7,000.0,032.4,025.3,6.8,0000.0,0008.22,0003.78,0003.44
2023-10-31 02:21:00,SystemResetWarning,0836.5,5.00,000.00,023.9,022.7,000.0,032.4,025.3,6.8,0000.0,0008.12,0003.77,0003.44
2023-10-31 02:22:00,SystemResetWarning,0836.5,4.99,000.00,023.9,022.7,000.0,032.4,025.3,6.7,0000.0,0006.69,0003.74,0003.44
2023-10-31 02:23:00,SystemResetWarning,0836.5,5.00,000.00,023.9,022.6,000.0,032.4,025.2,6.7,0000.0,0005.76,0003.73,0003.44
2023-10-31 02:24:00,SystemResetWarning,0836.5,5.01,000.00,023.9,022.6,000.0,032.4,025.2,6.8,0000.0,0005.77,0003.73,0003.44
2023-10-31 02:25:00,SystemResetWarning,0836.5,5.01,000.00,023.9,022.6,000.0,032.4,025.1,6.9,0000.0,0005.69,0003.70,0003.42
2023-10-31 02:26:00,SystemResetWarning,0836.5,5.01,000.00,023.9,022.6,000.0,032.4,025.1,7.1,0000.0,0005.55,0003.69,0003.42
2023-10-31 02:27:00,SystemResetWarning,0836.5,5.00,000.00,023.8,022.5,000.0,032.3,025.1,7.2,0000.0,0005.54,0003.71,0003.44
2023-10-31 02:28:00,SystemResetWarning,0836.5,5.00,000.00,023.8,022.5,000.0,032.3,025.2,7.2,0000.0,0005.68,0003.78,0003.50
2023-10-31 02:29:00,SystemResetWarning,0836.5,5.00,000.00,023.8,022.5,000.0,032.3,025.2,7.4,0000.0,0005.92,0003.87,0003.58
2023-10-31 02:30:00,SystemResetWarning,0836.5,4.99,000.00,023.8,022.5,000.0,032.3,025.1,7.6,0000.4,0005.98,0003.88,0003.61
2023-10-31 02:31:00,SystemResetWarning,0836.5,5.00,000.00,023.8,022.5,000.0,032.3,025.1,7.9,0000.7,0005.91,0003.89,0003.65
2023-10-31 02:32:00,SystemResetWarning,0836.5,5.00,000.00,023.8,022.5,000.0,032.3,025.1,8.4,0000.7,0005.82,0003.93,0003.69
2023-10-31 02:33:00,SystemResetWarning,0836.5,5.01,000.00,023.8,022.5,000.0,032.3,025.1,8.3,0000.0,0006.00,0003.97,0003.72
2023-10-31 02:34:00,SystemResetWarning,0836.6,5.01,000.00,023.8,022.5,000.0,032.3,025.1,8.2,0000.0,0006.42,0003.99,0003.73
2023-10-31 02:35:00,SystemResetWarning,0836.7,5.00,000.00,023.8,022.4,000.0,032.3,025.1,8.1,0000.0,0006.35,0003.96,0003.72
2023-10-31 02:36:00,SystemResetWarning,0836.7,4.99,000.00,023.7,022.4,000.0,032.2,025.1,8.7,0000.0,0006.95,0003.97,0003.73
2023-10-31 02:37:00,SystemResetWarning,0836.6,5.00,000.00,023.7,022.4,000.0,032.2,025.0,8.7,0000.0,0006.92,0003.96,0003.73
2023-10-31 02:38:00,SystemResetWarning,0836.6,5.00,000.00,023.7,022.4,000.0,032.2,025.1,8.7,0000.0,0006.88,0003.94,0003.72
2023-10-31 02:39:00,SystemResetWarning,0836.6,5.00,000.00,023.7,022.4,000.0,032.2,025.1,8.7,0000.0,0007.42,0003.89,0003.68
2023-10-31 02:40:00,SystemResetWarning,0836.6,5.00,000.00,023.7,022.4,000.0,032.2,025.1,8.6,0000.0,0007.93,0003.86,0003.64
2023-10-31 02:41:00,SystemResetWarning,0836.6,5.00,000.00,023.7,022.4,000.0,032.2,025.0,8.1,0000.0,0007.95,0003.86,0003.63
2023-10-31 02:42:00,SystemResetWarning,0836.6,5.00,000.00,023.7,022.4,000.0,032.2,025.0,7.4,0000.0,0007.93,0003.85,0003.62
2023-10-31 02:43:00,SystemResetWarning,0836.6,5.00,000.00,023.7,022.4,000.0,032.2,025.0,7.2,0000.0,0008.48,0003.84,0003.61
2023-10-31 02:44:00,SystemResetWarning,0836.6,5.01,000.00,023.7,022.3,000.0,032.2,025.0,7.2,0000.0,0008.49,0003.81,0003.60
2023-10-31 02:45:00,SystemResetWarning,0836.6,5.00,000.00,023.6,022.3,000.0,032.1,025.0,7.2,0000.0,0008.23,0003.79,0003.58
2023-10-31 02:46:00,SystemResetWarning,0836.6,5.00,000.00,023.6,022.3,000.0,032.1,025.0,7.3,0000.0,0008.31,0003.82,0003.59
2023-10-31 02:47:00,SystemResetWarning,0836.6,5.00,000.00,023.6,022.2,000.0,032.1,024.9,7.3,0000.0,0008.05,0003.83,0003.60
2023-10-31 02:48:00,SystemResetWarning,0836.6,4.99,000.00,023.6,022.2,000.0,032.1,024.9,7.3,0000.0,0008.09,0003.87,0003.61
2023-10-31 02:49:00,SystemResetWarning,0836.6,5.00,000.00,023.6,022.2,000.0,032.1,024.9,7.4,0000.0,0008.08,0003.87,0003.63
2023-10-31 02:50:00,SystemResetWarning,0836.6,5.01,000.00,023.5,022.2,000.0,032.1,024.9,7.2,0000.0,0007.61,0003.86,0003.63
2023-10-31 02:51:00,SystemResetWarning,0836.6,5.01,000.00,023.5,022.1,000.0,032.1,024.9,7.2,0000.0,0006.84,0003.85,0003.63
2023-10-31 02:52:00,SystemResetWarning,0836.6,5.01,000.00,023.5,022.1,000.0,032.0,024.9,7.2,0000.0,0006.82,0003.88,0003.64
2023-10-31 02:53:00,SystemResetWarning,0836.7,4.99,000.00,023.5,022.1,000.0,032.0,024.9,7.3,0000.0,0006.89,0003.91,0003.67
2023-10-31 02:54:00,SystemResetWarning,0836.7,4.99,000.00,023.5,022.1,000.0,032.0,024.8,7.4,0000.0,0005.97,0003.94,0003.70
2023-10-31 02:55:00,SystemResetWarning,0836.7,5.00,000.00,023.5,022.1,000.0,032.0,024.8,7.4,0000.0,0005.84,0004.00,0003.75
2023-10-31 02:56:00,SystemResetWarning,0836.7,5.00,000.00,023.5,022.1,000.0,032.0,024.8,7.1,0000.0,0006.12,0004.07,0003.81
2023-10-31 02:57:00,SystemResetWarning,0836.8,5.00,000.00,023.4,022.0,000.0,032.0,024.8,6.2,0000.0,0006.24,0004.12,0003.87
2023-10-31 02:58:00,SystemResetWarning,0836.8,5.01,000.00,023.4,022.1,000.0,032.0,024.8,5.9,0000.0,0006.21,0004.14,0003.89
2023-10-31 02:59:00,SystemResetWarning,0836.8,5.01,000.00,023.4,022.1,000.0,031.9,024.8,5.7,0000.2,0006.13,0004.13,0003.91
